Regional Weather Roundup
Issued by NWS

Home | Current Version | Previous Version | Graphics & Text | Print | Product List | Glossary On
Versions: 1 2 3 4 5 6 7 8 9 10 11 12 13 14 15 16 17 18 19 20 21 22 23 24 25 26 27 28 29 30 31 32 33 34 35 36 37 38 39 40 41 42 43 44 45 46 47 48 49 50
000
ASUS43 KIND 241659
RWRIN

WEATHER ROUNDUP FOR INDIANA
NATIONAL WEATHER SERVICE INDIANAPOLIS IN
100 PM EDT SUN MAY 24 2015

NOTE: "FAIR" INDICATES FEW OR NO CLOUDS BELOW 12,000 FEET WITH NO
SIGNIFICANT WEATHER AND/OR OBSTRUCTIONS TO VISIBILITY.

* - STATION DOES NOT REPORT WEATHER SUCH AS PRECIPITATION OR FOG.

+ - STATION NOT QUALITY CONTROLLED BY THE NATIONAL WEATHER SERVICE.
    USE DATA WITH CAUTION...ESPECIALLY DEWPOINT AND RELATIVE
    HUMIDITY OBSERVATIONS.

INZ001>003-010>013-019-020-241800-
NORTHWEST INDIANA

CITY           SKY/WX    TMP DP  RH WIND       PRES   REMARKS
GARY /AIRPORT/ CLOUDY    75  54  46 SE8       30.14F

$$

LMZ046-743>745-241800-
SOUTHERN LAKE MICHIGAN

STATION/POSITION TIME  TEMP    WIND        PRES    WAVE
                       AIR SEA DIR/SP/G            HT
                 (UTC) (F)     (DEG/KT/KT) (MB)    (FT)
BURNS HARBOR     1600   74     110/  9/ 11 1021.3F
MICHIGAN CITY    1600   69     110/  6/  9   N/A
5NW MICH CITY    1600   60 54   90/  4/  6   N/A     0

$$

INZ004-005-014>016-021>024-241800-
NORTH CENTRAL INDIANA

CITY           SKY/WX    TMP DP  RH WIND       PRES   REMARKS
ELKHART        CLOUDY    73  50  43 S7        30.19F
GOSHEN         CLOUDY    74  56  53 SE7       30.19F
SOUTH BEND     CLOUDY    74  52  46 SE10      30.18F

$$

INZ006>009-017-018-025>027-241800-
NORTHEAST INDIANA

CITY           SKY/WX    TMP DP  RH WIND       PRES   REMARKS
ANGOLA *+      MOSUNNY   72  55  56 S5        30.22F
FORT WAYNE     CLOUDY    76  57  51 S8        30.21F

$$

INZ028-029-035-036-043>045-051>053-241800-
WEST CENTRAL INDIANA

CITY           SKY/WX    TMP DP  RH WIND       PRES   REMARKS
GREENCASTLE +  MOSUNNY   77  52  41 S9G20     30.17F
LAFAYETTE      PTSUNNY   77  57  50 S13G18    30.14F
TERRE HAUTE    MOSUNNY   80  59  48 S10G21    30.14F

$$

INZ030>032-037>040-046>048-054>057-064-065-241800-
CENTRAL INDIANA

CITY           SKY/WX    TMP DP  RH WIND       PRES   REMARKS
COLUMBUS       MOSUNNY   79  46  31 S12G17    30.20F
GREENWOOD *+   PTSUNNY   81  50  34 S15       30.20F
INDIANAPOLIS   MOSUNNY   80  55  42 S14       30.17F
-EAGLE CREEK   MOSUNNY   79  56  45 S12       30.18F
KOKOMO *+      PTSUNNY   79  59  50 S13G18    30.17F
MT COMFORT *+  MOSUNNY   82  36  18 S13       30.19F
SHELBYVILLE    MOSUNNY   80  54  40 S13       30.19F

$$

INZ033-034-041-042-049-050-058-059-241800-
EAST CENTRAL INDIANA

CITY           SKY/WX    TMP DP  RH WIND       PRES   REMARKS
MUNCIE         PTSUNNY   80  54  40 S6G21     30.20F

$$

INZ060-061-067>069-081>083-085>088-241800-
SOUTHWEST INDIANA

CITY           SKY/WX    TMP DP  RH WIND       PRES   REMARKS
EVANSVILLE     MOSUNNY   81  58  45 S13       30.16F
HUNTINGBURG *+ PTSUNNY   81  57  44 S15       30.18F

$$

INZ062-063-066-070>080-084-089>092-241800-
SOUTH CENTRAL AND SOUTHEAST INDIANA

CITY           SKY/WX    TMP DP  RH WIND       PRES   REMARKS
BLOOMINGTON    MOSUNNY   81  56  42 S10       30.18F
MADISON *+     MOSUNNY   81  45  28 S10       30.25F
SEYMOUR +      MOSUNNY   84  54  34 S14G25    30.20F

$$



USA.gov is the U.S. government's official web portal to all federal, state and local government web resources and services.